Hourly Data Report for August 09, 2021

ALGONQUIN PARK EAST GATE
ONTARIO
Current Station Operator: ECCC - MSC

45°32'00.000" N
78°16'00.000" W
397.00 m
6080192
71581
TNK

Download Data

Hourly Data (August 2021)
Hourly Data Report for August 9, 2021
TIME
LST
Temp Definition
°C
Dew Point Definition
°C
Rel Hum Definition
%
Precip. Amount Definition
mm

Wind Dir Definition
10's deg

Wind Spd Definition
km/h
Visibility Definition
km
Stn Press Definition
kPa
Hmdx Definition


Wind Chill Definition


Weather Definition


00:00 20.0 19.6 98 0.0   0   97.08 27   LegendNANA
01:00 20.1 19.2 95 0.0 0 1   97.07 27   LegendNANA
02:00 19.6 19.1 97 1.8   0   97.07     LegendNANA
03:00 19.0 18.4 97 0.0   0   97.07     LegendNANA
04:00 18.5 18.2 98 0.0   0   97.10     LegendNANA
05:00 17.7 17.3 98 0.0   0   97.12     LegendNANA
06:00 18.1 17.8 98 0.0   0   97.12     LegendNANA
07:00 19.8 19.3 97 0.0   0   97.11     LegendNANA
08:00 22.0 20.2 90 0.0 24 4   97.09 30   LegendNANA
09:00 23.9 20.9 83 0.0 23 4   97.12 32   LegendNANA
10:00 24.8 20.6 78 0.0 22 6   97.12 33   LegendNANA
11:00 27.0 20.7 68 0.0 23 7   97.12 35   LegendNANA
12:00 28.3 20.4 62 0.0 23 8   97.10 36   LegendNANA
13:00 28.3 20.4 63 0.0 25 5   97.09 36   LegendNANA
14:00 29.2 19.8 57 0.0 20 5   97.07 37   LegendNANA
15:00 29.1 20.1 59 0.0 23 6   97.06 37   LegendNANA
16:00 28.6 20.4 61 0.0 22 4   97.03 37   LegendNANA
17:00 28.3 19.8 60 0.0 16 3   97.03 36   LegendNANA
18:00 26.7 20.8 70 0.0 15 4   97.04 35   LegendNANA
19:00 24.4 21.7 85 0.0 11 2   97.08 33   LegendNANA
20:00 22.2 20.7 91 0.0   0   97.11 30   LegendNANA
21:00 21.3 20.4 95 0.0 11 2   97.17 29   LegendNANA
22:00 20.7 20.0 96 0.0 10 2   97.16 28   LegendNANA
23:00 20.1 19.5 97 0.0   0   97.14 27   LegendNANA

Notes on Data Quality.

Legend

  • E = Estimated
  • M = Missing
  • NA = Not Available*
  • [empty] = Indicates an unobserved value
Date modified: